Regional Weather Roundup
Issued by NWS

Home | Current Version | Previous Version | Text Only | Print | Product List | Glossary Off
Versions: 1 2 3 4 5 6 7 8 9 10 11 12 13 14 15 16 17 18 19 20 21 22 23 24 25 26 27 28 29 30 31 32 33 34 35 36 37 38 39 40 41 42 43 44 45 46 47 48 49 50

172
ASUS44 KJAN 261410
RWRMS

MISSISSIPPI HOURLY WEATHER ROUNDUP
NATIONAL WEATHER SERVICE JACKSON MS
800 AM CST WED NOV 26 2014

NOTE: "FAIR: INDICATES FEW OR NO CLOUDS BELOW 12,000 FEET WITH NO
SIGNIFICANT WEATHER AND/OR OBSTRUCTIONS TO VISIBILITY.

MSZ001>002-007>008-010>013-018>021-025>028-034>036-261500-
NORTHWEST MISSISSIPPI

CITY           SKY/WX    TMP DP  RH WIND       PRES   REMARKS
CLARKSDALE     FAIR      37  32  81 SE7       30.15F WCI  32
CLEVELAND      FAIR      39  34  80 S9        30.14F WCI  33
GREENWOOD      SUNNY     36  29  75 S6        30.18F WCI  31
GREENVILLE     SUNNY     40  33  76 S10       30.14F WCI  33
GRENADA        FAIR      30  30 100 CALM      30.19S
OLIVE BRANCH   MOSUNNY   32  32 100 S7        30.14S WCI  26
OXFORD         FAIR      32  27  80 SE5       30.18S WCI  27
TUNICA         SUNNY     34  32  93 SE8       30.16S WCI  27
$$

MSZ003>006-009-014>017-022>024-029>033-037>039-261500-
NORTHEAST MISSISSIPPI

CITY           SKY/WX    TMP DP  RH WIND       PRES   REMARKS
COLUMBUS AFB   SUNNY     32  29  90 CALM      30.20R
CORINTH        FAIR      30  27  86 CALM      30.16R
GOLDN TRIANGLE SUNNY     30  27  86 CALM      30.19R
STARKVILLE       N/A     32  30  93 CALM      30.20S
TUPELO         SUNNY     32  28  85 CALM      30.19R
$$

MSZ040-058-261500-
CENTRAL MISSISSIPPI

CITY           SKY/WX    TMP DP  RH WIND       PRES   REMARKS
JACKSON INTL   SUNNY     36  32  85 S3        30.22R
JACKSON HAWKNS SUNNY     37  32  82 SE3       30.21R
MERIDIAN KEY   SUNNY     32  30  92 S5        30.24R WCI  27
MERIDIAN NAS   SUNNY     35  30  82 CALM      30.23R
RAYMOND        FAIR      34  28  80 CALM      30.22S
VICKSBURG      SUNNY     39  34  82 S8        30.20F WCI  33
$$

MSZ059>079-261500-
SOUTH MISSISSIPPI

CITY           SKY/WX    TMP DP  RH WIND       PRES   REMARKS
BROOKHAVEN     FAIR      34  32  93 CALM      30.24R
HATTIESBURG    SUNNY     36  32  85 CALM      30.27R
MCCOMB         SUNNY     37  32  82 CALM      30.24R
NATCHEZ        SUNNY     41  34  75 S6        30.22S
PINE BELT      SUNNY     36  30  80 CALM      30.25R
$$

MSZ080>082-261500-
COASTAL MISSISSIPPI

CITY           SKY/WX    TMP DP  RH WIND       PRES   REMARKS
BAY ST LOUIS   SUNNY     37  34  87 CALM      30.29R
BILOXI         SUNNY     44  33  65 VRB1      30.27R
PASCAGOULA     SUNNY     41  33  73 NW3       30.26R
GULFPORT       SUNNY     39  33  79 NW3       30.27R
$$



USA.gov is the U.S. government's official web portal to all federal, state and local government web resources and services.